| time (UTC) | temp F | wind direction | speed MPH | gust MPH | rain 1hr in | rain 24hr in | rain mn in | humidity % | barometer mb |
| 20260508134557 | 58 | 297 | 2.0 | 4.0 | 0.00 | 0.31 | 0.01 | 70 | 1018.2 |
| 20260508133116 | 58 | 0 | 0.0 | 3.0 | 0.00 | 0.31 | 0.01 | 72 | 1018.1 |
| 20260508131550 | 56 | 209 | 2.0 | 4.0 | 0.00 | 0.31 | 0.01 | 77 | 1018.1 |
| 20260508130057 | 56 | 207 | 2.0 | 4.0 | 0.00 | 0.31 | 0.01 | 79 | 1017.9 |
| 20260508124558 | 56 | 221 | 1.0 | 3.0 | 0.00 | 0.45 | 0.01 | 79 | 1018.0 |
| 20260508123102 | 54 | 199 | 1.0 | 4.0 | 0.00 | 0.45 | 0.01 | 82 | 1017.8 |
| 20260508121602 | 53 | 0 | 0.0 | 0.0 | 0.00 | 0.45 | 0.01 | 78 | 1017.7 |
| 20260508120054 | 53 | 0 | 0.0 | 0.0 | 0.00 | 0.45 | 0.01 | 79 | 1017.5 |
| 20260508114552 | 49 | 0 | 0.0 | 1.0 | 0.00 | 0.51 | 0.01 | 86 | 1017.3 |
| 20260508113107 | 48 | 26 | 1.0 | 2.0 | 0.00 | 0.51 | 0.01 | 86 | 1017.1 |
| 20260508111605 | 47 | 49 | 0.0 | 2.0 | 0.00 | 0.51 | 0.01 | 86 | 1016.9 |
| 20260508110100 | 45 | 357 | 0.0 | 2.0 | 0.01 | 0.51 | 0.01 | 90 | 1016.7 |
| 20260508104556 | 44 | 25 | 0.0 | 2.0 | 0.01 | 0.51 | 0.01 | 92 | 1016.5 |
| 20260508103058 | 43 | 41 | 1.0 | 5.0 | 0.01 | 0.51 | 0.01 | 92 | 1016.2 |
| 20260508101600 | 43 | 29 | 1.0 | 2.0 | 0.01 | 0.51 | 0.01 | 93 | 1015.9 |
| 20260508100056 | 43 | 356 | 0.0 | 1.0 | 0.00 | 0.50 | 0.00 | 93 | 1015.9 |
| 20260508094558 | 44 | 0 | 0.0 | 0.0 | 0.00 | 0.50 | 0.00 | 92 | 1015.7 |
| 20260508093058 | 45 | 0 | 0.0 | 0.0 | 0.00 | 0.50 | 0.00 | 90 | 1015.5 |
| 20260508091609 | 46 | 357 | 0.0 | 2.0 | 0.00 | 0.50 | 0.00 | 89 | 1015.5 |
| 20260508090111 | 47 | 344 | 1.0 | 2.0 | 0.00 | 0.50 | 0.00 | 88 | 1015.3 |
| 20260508084601 | 47 | 17 | 1.0 | 3.0 | 0.00 | 0.50 | 0.00 | 90 | 1015.4 |
| 20260508083055 | 46 | 24 | 1.0 | 1.0 | 0.00 | 0.50 | 0.00 | 91 | 1015.3 |
| 20260508081603 | 46 | 0 | 0.0 | 1.0 | 0.00 | 0.50 | 0.00 | 91 | 1015.2 |
| 20260508080054 | 46 | 0 | 0.0 | 0.0 | 0.00 | 0.50 | 0.00 | 91 | 1015.2 |
| 20260508074555 | 47 | 0 | 0.0 | 1.0 | 0.00 | 0.51 | 0.00 | 91 | 1014.9 |
| 20260508073102 | 47 | 40 | 0.0 | 0.0 | 0.00 | 0.51 | 0.00 | 89 | 1014.9 |
| 20260508071603 | 48 | 0 | 0.0 | 2.0 | 0.00 | 0.51 | 0.00 | 89 | 1014.9 |
| 20260508070050 | 48 | 0 | 0.0 | 1.0 | 0.00 | 0.51 | 0.00 | 89 | 1014.8 |
| 20260508064549 | 49 | 34 | 1.0 | 2.0 | 0.00 | 0.51 | 0.00 | 87 | 1014.7 |
| 20260508063050 | 51 | 301 | 1.0 | 3.0 | 0.00 | 0.51 | 0.00 | 83 | 1014.6 |
| 20260508061552 | 50 | 292 | 1.0 | 3.0 | 0.00 | 0.51 | 0.00 | 86 | 1014.6 |
| 20260508060052 | 48 | 0 | 0.0 | 2.0 | 0.00 | 0.51 | 0.00 | 94 | 1014.7 |
| 20260508054553 | 47 | 0 | 0.0 | 0.0 | 0.00 | 0.52 | 0.00 | 94 | 1014.6 |
| 20260508053115 | 47 | 0 | 0.0 | 0.0 | 0.00 | 0.52 | 0.00 | 94 | 1014.7 |
| 20260508051554 | 47 | 0 | 0.0 | 0.0 | 0.00 | 0.52 | 0.00 | 93 | 1014.5 |
| 20260508050057 | 48 | 0 | 0.0 | 0.0 | 0.00 | 0.52 | 0.00 | 93 | 1014.4 |
| 20260508044556 | 48 | 0 | 0.0 | 0.0 | 0.00 | 0.54 | 0.00 | 93 | 1014.3 |
| 20260508043051 | 49 | 0 | 0.0 | 2.0 | 0.00 | 0.54 | 0.00 | 92 | 1014.3 |
| 20260508041611 | 49 | 0 | 0.0 | 1.0 | 0.00 | 0.54 | 0.00 | 92 | 1014.2 |
| 20260508040110 | 50 | 0 | 0.0 | 1.0 | 0.00 | 0.54 | 0.00 | 92 | 1014.3 |
| 20260508034552 | 50 | 137 | 0.0 | 1.0 | 0.00 | 0.55 | 0.54 | 91 | 1014.3 |
| 20260508033052 | 51 | 217 | 1.0 | 4.0 | 0.00 | 0.55 | 0.54 | 89 | 1014.1 |
| 20260508031551 | 52 | 0 | 0.0 | 0.0 | 0.00 | 0.55 | 0.54 | 88 | 1014.1 |
| 20260508030053 | 51 | 0 | 0.0 | 1.0 | 0.00 | 0.55 | 0.54 | 88 | 1014.0 |
| 20260508024604 | 51 | 0 | 0.0 | 0.0 | 0.00 | 0.58 | 0.54 | 88 | 1013.7 |
| 20260508023052 | 52 | 0 | 0.0 | 0.0 | 0.00 | 0.58 | 0.54 | 87 | 1013.7 |
| 20260508021552 | 54 | 0 | 0.0 | 2.0 | 0.00 | 0.58 | 0.54 | 83 | 1013.5 |
| 20260508020054 | 56 | 0 | 0.0 | 0.0 | 0.00 | 0.58 | 0.54 | 77 | 1013.2 |
| 20260508014551 | 57 | 359 | 0.0 | 2.0 | 0.00 | 0.62 | 0.54 | 73 | 1012.9 |
| 20260508013052 | 58 | 44 | 0.0 | 4.0 | 0.00 | 0.62 | 0.54 | 71 | 1012.5 |
| 20260508011556 | 58 | 0 | 0.0 | 2.0 | 0.00 | 0.62 | 0.54 | 73 | 1012.3 |
| 20260508010052 | 59 | 307 | 2.0 | 6.0 | 0.00 | 0.62 | 0.54 | 70 | 1012.0 |
| 20260508004558 | 60 | 302 | 4.0 | 7.0 | 0.00 | 0.67 | 0.54 | 68 | 1011.8 |
| 20260508003104 | 61 | 281 | 5.0 | 10.0 | 0.00 | 0.67 | 0.54 | 67 | 1011.7 |
| 20260508001557 | 61 | 317 | 4.0 | 12.0 | 0.00 | 0.67 | 0.54 | 67 | 1011.4 |
| 20260508000056 | 62 | 302 | 4.0 | 9.0 | 0.00 | 0.67 | 0.54 | 76 | 1011.4 |
| 20260507234554 | 61 | 11 | 4.0 | 8.0 | 0.00 | 0.68 | 0.54 | 81 | 1011.3 |
| 20260507233102 | 61 | 63 | 4.0 | 8.0 | 0.00 | 0.68 | 0.54 | 88 | 1011.1 |
| 20260507231554 | 61 | 68 | 5.0 | 9.0 | 0.00 | 0.68 | 0.54 | 88 | 1011.0 |
| 20260507230054 | 61 | 78 | 2.0 | 6.0 | 0.00 | 0.68 | 0.54 | 87 | 1010.7 |
| 20260507224557 | 62 | 53 | 2.0 | 8.0 | 0.00 | 0.68 | 0.54 | 87 | 1010.2 |
| 20260507223056 | 62 | 79 | 4.0 | 11.0 | 0.00 | 0.68 | 0.54 | 86 | 1009.9 |
| 20260507221553 | 62 | 51 | 6.0 | 11.0 | 0.00 | 0.68 | 0.54 | 86 | 1009.8 |
| 20260507220055 | 62 | 56 | 5.0 | 10.0 | 0.00 | 0.68 | 0.54 | 87 | 1009.4 |
| 20260507214607 | 61 | 20 | 7.0 | 13.0 | 0.00 | 0.68 | 0.54 | 88 | 1009.4 |
| 20260507213105 | 61 | 58 | 8.0 | 15.0 | 0.00 | 0.68 | 0.54 | 88 | 1009.2 |
| 20260507211556 | 60 | 60 | 7.0 | 15.0 | 0.00 | 0.68 | 0.54 | 90 | 1009.5 |
| 20260507204554 | 60 | 99 | 8.0 | 15.0 | 0.00 | 0.68 | 0.54 | 92 | 1009.2 |
| 20260507203052 | 60 | 49 | 7.0 | 16.0 | 0.00 | 0.68 | 0.54 | 92 | 1009.0 |
| 20260507201557 | 61 | 67 | 8.0 | 17.0 | 0.18 | 0.68 | 0.54 | 91 | 1008.7 |
| 20260507200055 | 61 | 347 | 10.0 | 17.0 | 0.30 | 0.68 | 0.54 | 92 | 1008.7 |
| 20260507194618 | 62 | 23 | 10.0 | 18.0 | 0.30 | 0.68 | 0.54 | 92 | 1008.8 |
| 20260507193052 | 62 | 34 | 8.0 | 18.0 | 0.30 | 0.68 | 0.54 | 91 | 1008.7 |
| 20260507191552 | 67 | 46 | 7.0 | 14.0 | 0.11 | 0.49 | 0.35 | 85 | 1008.6 |
| 20260507190054 | 75 | 195 | 3.0 | 8.0 | 0.00 | 0.38 | 0.24 | 71 | 1007.9 |
| 20260507184555 | 76 | 143 | 2.0 | 8.0 | 0.00 | 0.38 | 0.24 | 70 | 1007.7 |
| 20260507183102 | 74 | 256 | 4.0 | 9.0 | 0.00 | 0.38 | 0.24 | 72 | 1007.9 |
| 20260507181558 | 74 | 210 | 6.0 | 9.0 | 0.00 | 0.38 | 0.24 | 74 | 1008.1 |
| 20260507180101 | 73 | 199 | 4.0 | 9.0 | 0.00 | 0.38 | 0.24 | 75 | 1008.3 |
| 20260507174602 | 73 | 243 | 4.0 | 8.0 | 0.00 | 0.38 | 0.24 | 76 | 1008.5 |
| 20260507173137 | 73 | 116 | 3.0 | 8.0 | 0.00 | 0.38 | 0.24 | 76 | 1008.6 |
| 20260507171611 | 73 | 209 | 2.0 | 6.0 | 0.00 | 0.38 | 0.24 | 76 | 1008.6 |
| 20260507170116 | 72 | 153 | 2.0 | 6.0 | 0.00 | 0.38 | 0.24 | 81 | 1009.0 |
| 20260507164558 | 69 | 244 | 2.0 | 5.0 | 0.00 | 0.40 | 0.24 | 84 | 1009.2 |
| 20260507163055 | 69 | 265 | 1.0 | 5.0 | 0.00 | 0.40 | 0.24 | 82 | 1009.4 |
| 20260507161606 | 68 | 261 | 3.0 | 6.0 | 0.00 | 0.40 | 0.24 | 86 | 1009.5 |
| 20260507160057 | 68 | 0 | 0.0 | 3.0 | 0.00 | 0.40 | 0.24 | 88 | 1009.2 |
| 20260507154554 | 68 | 169 | 1.0 | 3.0 | 0.00 | 0.41 | 0.24 | 87 | 1008.9 |
| 20260507153059 | 66 | 167 | 1.0 | 3.0 | 0.00 | 0.41 | 0.24 | 93 | 1009.2 |
| 20260507151601 | 64 | 178 | 2.0 | 4.0 | 0.00 | 0.41 | 0.24 | 95 | 1009.7 |
| 20260507144600 | 64 | 167 | 1.0 | 6.0 | 0.00 | 0.41 | 0.24 | 97 | 1010.1 |
| 20260507143104 | 63 | 144 | 3.0 | 5.0 | 0.00 | 0.41 | 0.24 | 97 | 1009.9 |
| 20260507141621 | 63 | 245 | 3.0 | 4.0 | 0.00 | 0.41 | 0.24 | 97 | 1010.1 |
| 20260507140052 | 63 | 0 | 0.0 | 0.0 | 0.00 | 0.41 | 0.24 | 98 | 1009.3 |